Tracking 22287 objects as of 27-Jan-2021
HD Live streaming from Space Station
objects crossing your sky now

COSMOS 1934 DEB

Track COSMOS 1934 DEB now!
10-day predictions


NORAD ID: 21912
Int'l Code: 1988-023C
Perigee: 931.6 km
Apogee: 987.2 km
Inclination: 83.0 °
Period: 104.1 minutes
Semi major axis: 7330 km
RCS: 0.1428 m2 (medium)
Launch date: March 22, 1988
Source: Commonwealth of Independent States (former USSR) (CIS)
Launch site: PLESETSK MISSILE AND SPACE COMPLEX (PKMTR)

Note: This is SATELLITE DEBRIS
aabbcc
Your satellite tracking list
Your tracking list is empty




NASA's NSSDC Master Catalog

Two Line Element Set (TLE):
1 21912U 88023C   21026.51109358  .00000208  00000-0  17452-3 0  9991
2 21912  82.9571 121.8134 0037869  35.2483 336.7721 13.83282358529511
Source of the keplerian elements: AFSPC